Regional Weather Roundup
Issued by NWS

Home | Current Version | Previous Version | Graphics & Text | Print | Product List | Glossary On
Versions: 1 2 3 4 5 6 7 8 9 10 11 12 13 14 15 16 17 18 19 20 21 22 23 24 25 26 27 28 29 30 31 32 33 34 35 36 37 38 39 40 41 42 43 44 45 46 47 48 49 50
000
ASUS43 KDMX 272308
RWRIA

WEATHER ROUNDUP FOR IOWA
NATIONAL WEATHER SERVICE DES MOINES IA
600 PM CDT TUE SEP 27 2016

NOTE: "FAIR" INDICATES FEW OR NO CLOUDS BELOW 12,000 FEET WITH NO
SIGNIFICANT WEATHER AND/OR OBSTRUCTIONS TO VISIBILITY.

* - THESE STATIONS ARE NOT NWS STATIONS...THUS NOT UNDER NWS
QUALITY CONTROL.  THEY ALSO DO NOT REPORT WEATHER SUCH
AS PRECIPITATION OR FOG.

IAZ001>003-012>014-020>022-031>034-043>046-280000-
   NORTHWEST IOWA

CITY           SKY/WX    TMP DP  RH WIND       PRES   REMARKS
CARROLL *      SUNNY     73  43  33 W16G23    29.83S
CHEROKEE *     SUNNY     71  43  35 NW13G21   29.84S
DENISON *      SUNNY     73  43  33 W12G20    29.83F
LE MARS *      SUNNY     73  45  35 NW16      29.85F
ORANGE CITY *  SUNNY     72  45  37 NW12G25   29.85S
SHELDON *      SUNNY     72  43  35 NW13G22   29.83F
SIOUX CITY     SUNNY     75  47  36 NW13      29.86S
SPENCER        SUNNY     70  42  36 NW17G26   29.83S
STORM LAKE *   SUNNY     72  41  33 NW18G24   29.84F
$$

IAZ055>058-069>071-079>083-090>094-280000-
   SOUTHWEST IOWA

CITY           SKY/WX    TMP DP  RH WIND       PRES   REMARKS
ATLANTIC *     SUNNY     73  43  33 W14       29.85F
AUDUBON *      SUNNY     73  39  29 W13       29.86S
CLARINDA *       N/A     75  45  33 MISG      29.88S
COUNCIL BLFS * SUNNY     75  45  33 NW5       29.87S
CRESTON *      SUNNY     72  43  35 W13G21    29.86F
HARLAN  *      SUNNY     73  41  31 W14G25    29.89F
LAMONI         SUNNY     75  44  33 W10       29.85F
RED OAK *      SUNNY     75  45  33 W6        29.87S
SHENANDOAH *   SUNNY     75  45  33 NW5       29.87F
$$

IAZ047>049-059>061-072>074-084-280000-
   CENTRAL IOWA

CITY           SKY/WX    TMP DP  RH WIND       PRES   REMARKS
AMES           SUNNY     72  43  35 NW16G28   29.80F
ANKENY *         N/A    N/A N/A N/A MISG        N/A
BOONE *        SUNNY     72  43  35 NW13G25   29.80S
CHARITON *       N/A     73  43  33 W10       29.83S
DES MOINES     MOSUNNY   75  42  30 W14G23    29.80F
GRINNELL*      MOSUNNY   71  40  31 W12G22    29.80F
KNOXVILLE *    SUNNY     73  41  31 W12G23    29.80F
MARSHALLTOWN   SUNNY     71  41  33 NW21G26   29.78F
NEWTON *       CLOUDY    73  41  31 W13G26    29.79F
PELLA *        SUNNY     73  42  33 W12       29.82S
PERRY *          N/A     74  39  28 W13G20    29.82F
$$

IAZ004>006-015-016-023>025-035-036-280000-
   NORTH CENTRAL IOWA

CITY           SKY/WX    TMP DP  RH WIND       PRES   REMARKS
ALGONA *       SUNNY     70  37  30 NW18G24   29.81S
CLARION *      MOSUNNY   70  39  32 NW14G23   29.80S
ESTHERVILLE    MOSUNNY   68  35  29 NW13G22   29.81S
FORT DODGE *   SUNNY     72  43  35 NW12G21   29.82S
MASON CITY     MOSUNNY   65  31  28 NW18      29.80S
FOREST CITY *    N/A     63  32  31 NW12G17   29.80S
WEBSTER CITY * SUNNY     73  41  31 NW17G28   29.79S
IOWA FALLS *     N/A     71  37  29 NW12G22   29.80S
$$

IAZ007>011-017>019-026>030-037>042-050>054-066-280000-
   NORTHEAST IOWA

CITY           SKY/WX    TMP DP  RH WIND       PRES   REMARKS
CEDAR RAPIDS   CLOUDY    65  41  41 W10       29.77S
CHARLES CITY * MOCLDY    66  30  26 NW8G17    29.78F
CLINTON *      MOCLDY    68  33  27 NW10      29.77R
DECORAH *      PTCLDY    61  36  39 VRB7      29.75F
DUBUQUE        CLOUDY    62  38  40 NW6       29.77S
MONTICELLO *   PTCLDY    68  32  26 NW12G18   29.76S
OELWEIN *      MOCLDY    66  30  26 NW10G25   29.77S
WATERLOO       PTCLDY    68  31  25 W9        29.76S
$$

IAZ064-065-067-068-078-280000-
   EAST CENTRAL IOWA

CITY           SKY/WX    TMP DP  RH WIND       PRES   REMARKS
DAVENPORT      PTCLDY    70  30  22 W16G26    29.78S
IOWA CITY      CLEAR     70  39  32 NW10      29.79S
MT. PLEASANT * CLEAR     75  40  28 W13       29.80S
MUSCATINE *    CLEAR     73  36  25 W12       29.78S
QUAD CITIES    CLEAR     72  38  29 W10       29.77S
$$

IAZ062-063-075>077-085>089-095>099-280000-
   SOUTHEAST IOWA

CITY           SKY/WX    TMP DP  RH WIND       PRES   REMARKS
BURLINGTON     CLEAR     72  40  31 W8        29.80S
FAIRFIELD *    CLEAR     73  39  29 W12G20    29.80S
FORT MADISON *   N/A     73  39  29 W7        29.82S
KEOKUK *       CLEAR     75  39  27 W13       29.80S
OSKALOOSA *      N/A     73  39  28 W16       29.81F
CENTERVILLE *    N/A     73  41  31 W8        29.85S
OTTUMWA        CLEAR     72  40  31 W15       29.81S
WASHINGTON *     N/A    N/A N/A N/A MISG        N/A
$$

ABBREVIATIONS USED IN REMARKS
   TC - TEMPERATURES IN CELSIUS
  WCI - WIND CHILL INDEX
   HX - HEAT INDEX
  VSB - VISIBILITY
$$




USA.gov is the U.S. government's official web portal to all federal, state and local government web resources and services.